Dauntless Aviation
Greetings, Guest! To participate, [sign up for a free account] or [log in]
Airports Europe Germany
EDSW

Altdorf-Wallburg

Altdorf-Wallburg, GERMANY

Airport Info
Edit

Location

Latitude / Longitude: 48°16'11"N / 7°50'31"E
  48°16.188'N / 7°50.532'E
  48.2698 / 7.8422
Satellite photo at:
Airport distance calculator
From:
Weather Reports

METAR

EDTL
5.8nm NW
EDTL 231720Z 13005KT CAVOK 10/06 Q1025
LFST
18.2nm NW
LFST 231730Z AUTO 13003KT 9999 OVC056 10/07 Q1024
EDSB
32.3nm N
EDSB 231720Z 00000KT CAVOK 08/05 Q1024

TAF

EDTL
5.8nm NW
TAF EDTL 231400Z 2315/2324 VRB03KT 9999 SCT030
LFST
18.2nm NW
TAF LFST 231100Z 2312/2412 VRB03KT 9999 SCT025 BKN055 BECMG 2321/2324 3000 BR PROB40 TEMPO 2403/2407 0500 FG VV/// BECMG 2408/2410 9999 NSW
EDSB
32.3nm N
TAF EDSB 231100Z 2312/2412 VRB03KT 9999 BKN030 BECMG 2323/2401 1200 BCFG TEMPO 2401/2409 0400 FG BKN001 BECMG 2410/2412 4000
Safelog

 

Dauntless Aviation

© 2007-2014 Dauntless Aviation, all rights reserved
Information provided via PilotNav comes from a variety of official and unofficial data sources. As errors are possible, do not use PilotNav for primary flight planning purposes. Verify any information that you receive via PilotNav with current and canonical charts and other official documents. The material in this database is subject to database copyrights held by Dauntless Aviation and may not be copied without the express permission of Dauntless Aviation - licenses for use of part of all of this data are available for purchase; enquire via the Dauntless Aviation helpdesk. A number of mechanisms and markers exist in the database to protect against and identify infringement / copyright. Automated queries against this website are stictly prohibited, and all activity is logged and analyzed.